This is the latest recevied weather packets stored in our database for station/object KK7KHO. If no packets are shown the sender has not sent any weather packets the latest 10 day(s).
| Time | Temp. | Humidity | Pressure | Rain* | Wind** | Luminosity | Snow |
|---|---|---|---|---|---|---|---|
| 1777508698 | 18.33° C | 66% | 1021.5 hPa | 0 mm | - | 284 W/m² | - |
| 1777508394 | 18.33° C | 66% | 1021.3 hPa | 0 mm | - | 297 W/m² | - |
| 1777508091 | 18.33° C | 65% | 1021.4 hPa | 0 mm | - | 309 W/m² | - |
| 1777507788 | 18.33° C | 65% | 1021.4 hPa | 0 mm | - | 322 W/m² | - |
| 1777507485 | 17.78° C | 67% | 1021.4 hPa | 0 mm | - | 336 W/m² | - |
| 1777507182 | 18.33° C | 66% | 1021.4 hPa | 0 mm | - | 347 W/m² | - |
| 1777506880 | 18.33° C | 66% | 1021.4 hPa | 0 mm | - | 360 W/m² | - |
| 1777506577 | 18.33° C | 67% | 1021.7 hPa | 0 mm | - | 374 W/m² | - |
| 1777506272 | 17.78° C | 67% | 1021.8 hPa | 0 mm | - | 383 W/m² | - |
| 1777505969 | 18.33° C | 65% | 1021.8 hPa | 0 mm | - | 395 W/m² | - |
| 1777505665 | 18.33° C | 66% | 1021.6 hPa | 0 mm | - | 407 W/m² | - |
| 1777505362 | 18.89° C | 65% | 1021.9 hPa | 0 mm | - | 418 W/m² | - |
| 1777505058 | 18.33° C | 65% | 1021.8 hPa | 0 mm | - | 432 W/m² | - |
| 1777504755 | 18.89° C | 64% | 1022.1 hPa | 0 mm | - | 438 W/m² | - |
| 1777504452 | 18.33° C | 65% | 1022.1 hPa | 0 mm | - | 453 W/m² | - |
| 1777504148 | 18.33° C | 65% | 1022.1 hPa | 0 mm | - | 466 W/m² | - |
| 1777503843 | 18.89° C | 65% | 1022.3 hPa | 0 mm | - | 473 W/m² | - |
| 1777503540 | 19.44° C | 63% | 1022.4 hPa | 0 mm | - | 487 W/m² | - |
| 1777503236 | 18.89° C | 64% | 1022.3 hPa | 0 mm | - | 493 W/m² | - |
| 1777502933 | 18.89° C | 64% | 1022.4 hPa | 0 mm | - | 506 W/m² | - |
| 1777502631 | 18.89° C | 65% | 1022.4 hPa | 0 mm | - | 516 W/m² | - |
| 1777502328 | 18.33° C | 66% | 1022.5 hPa | 0 mm | - | 525 W/m² | - |
| 1777502024 | 18.33° C | 65% | 1022.4 hPa | 0 mm | - | 531 W/m² | - |
| 1777501721 | 18.33° C | 67% | 1022.6 hPa | 0 mm | - | 542 W/m² | - |
| 1777501418 | 17.78° C | 67% | 1022.7 hPa | 0 mm | - | 550 W/m² | - |
* Rain latest hour (hover to see other rain measurements)
** Current wind speed in m/s (hover to see current wind gust speed)